{"data":{"norad_id":53472,"intl_designator":"2022-099H","name":"STARLINK-4447","alt_names":[],"object_type":"PAYLOAD","status":"ACTIVE","operator":null,"country":"US","launch_date":"2022-08-12","launch_site_code":"AFWTR","launch_vehicle":null,"mission":null,"orbit_class":"UNKNOWN","rcs_meters":null,"size_class":null,"mass_kg":null,"dimensions":null,"purposes":["comms"],"wikipedia_slug":null,"has_3d_model":false,"image_url":null,"decayed_at":null,"tle_current":{"epoch":"2026-05-25T04:56:35.992032Z","epoch_age_seconds":57012,"freshness":"FRESH","line1":"1 53472U 22099H   26145.20597213 -.00000913  00000+0 -59240-4 0  9998","line2":"2 53472  97.4467 265.1165 0000975 147.7893 212.3394 15.05657976207482","mean_motion":15.05657976,"eccentricity":9.75e-5,"inclination_deg":97.4467,"raan_deg":265.1165,"arg_perigee_deg":147.7893,"mean_anomaly_deg":212.3394,"bstar":-5.924e-5,"rev_number":20748,"period_min":95.639250278179,"perigee_km":548.81124524823,"apogee_km":550.1621318675,"semimajor_km":6927.6236885579,"source":"CELESTRAK","updated_at":"2026-05-25T13:38:17.429011Z"}}}